| time (UTC) | temp F | wind direction | speed MPH | gust MPH | rain 1hr in | rain 24hr in | rain mn in | humidity % | barometer mb |
| 20260905022516 | 88 | 0.0 | 0.0 | 0.00 | 0.00 | 0.00 | 73 | 1013.6 | |
| 20260905021516 | 88 | 0.0 | 0.0 | 0.00 | 0.00 | 0.00 | 72 | 1013.6 | |
| 20260905020516 | 89 | 0.0 | 0.0 | 0.00 | 0.00 | 0.00 | 71 | 1013.5 | |
| 20260905015516 | 89 | 0.0 | 0.0 | 0.00 | 0.00 | 0.00 | 69 | 1013.5 | |
| 20260905014536 | 90 | 158 | 1.0 | 2.0 | 0.00 | 0.00 | 0.00 | 68 | 1013.3 |
| 20260905013556 | 90 | 0.0 | 2.0 | 0.00 | 0.00 | 0.00 | 68 | 1013.0 | |
| 20260905012516 | 90 | 180 | 1.0 | 3.0 | 0.00 | 0.00 | 0.00 | 68 | 1012.8 |
| 20260905011556 | 91 | 0.0 | 0.0 | 0.00 | 0.00 | 0.00 | 68 | 1012.9 | |
| 20260905010516 | 92 | 0.0 | 0.0 | 0.00 | 0.00 | 0.00 | 67 | 1012.9 | |
| 20260905005516 | 92 | 0.0 | 1.0 | 0.00 | 0.00 | 0.00 | 65 | 1012.9 | |
| 20260905004516 | 93 | 0.0 | 0.0 | 0.00 | 0.00 | 0.00 | 64 | 1012.9 | |
| 20260905003515 | 94 | 0.0 | 0.0 | 0.00 | 0.00 | 0.00 | 63 | 1012.8 | |
| 20260905002535 | 94 | 0.0 | 0.0 | 0.00 | 0.00 | 0.00 | 63 | 1012.9 | |
| 20260905001516 | 93 | 0.0 | 0.0 | 0.00 | 0.00 | 0.00 | 64 | 1012.8 | |
| 20260905000556 | 93 | 0.0 | 1.0 | 0.00 | 0.00 | 0.00 | 63 | 1012.9 | |
| 20260904235515 | 93 | 0.0 | 0.0 | 0.00 | 0.00 | 0.00 | 63 | 1012.9 | |
| 20260904234515 | 94 | 0.0 | 0.0 | 0.00 | 0.00 | 0.00 | 63 | 1012.9 | |
| 20260904233516 | 94 | 0.0 | 1.0 | 0.00 | 0.00 | 0.00 | 62 | 1012.9 | |
| 20260904232515 | 95 | 180 | 1.0 | 4.0 | 0.00 | 0.00 | 0.00 | 61 | 1013.1 |
| 20260904231516 | 95 | 225 | 1.0 | 3.0 | 0.00 | 0.00 | 0.00 | 60 | 1013.1 |
| 20260904230516 | 95 | 203 | 2.0 | 6.0 | 0.00 | 0.00 | 0.00 | 60 | 1013.1 |
| 20260904225516 | 95 | 158 | 2.0 | 5.0 | 0.00 | 0.00 | 0.00 | 59 | 1013.2 |
| 20260904224535 | 95 | 203 | 2.0 | 4.0 | 0.00 | 0.00 | 0.00 | 59 | 1013.1 |
| 20260904223515 | 95 | 203 | 2.0 | 5.0 | 0.00 | 0.00 | 0.00 | 58 | 1013.1 |
| 20260904222516 | 95 | 203 | 2.0 | 5.0 | 0.00 | 0.00 | 0.00 | 60 | 1013.2 |
| 20260904221515 | 96 | 203 | 2.0 | 5.0 | 0.00 | 0.00 | 0.00 | 57 | 1013.1 |
| 20260904220515 | 96 | 203 | 3.0 | 7.0 | 0.00 | 0.00 | 0.00 | 57 | 1013.2 |
| 20260904215515 | 96 | 248 | 3.0 | 5.0 | 0.00 | 0.00 | 0.00 | 59 | 1013.1 |
| 20260904214516 | 96 | 225 | 3.0 | 6.0 | 0.00 | 0.00 | 0.00 | 57 | 1013.1 |
| 20260904213516 | 96 | 203 | 3.0 | 7.0 | 0.00 | 0.00 | 0.00 | 56 | 1013.0 |
| 20260904212515 | 96 | 225 | 3.0 | 7.0 | 0.00 | 0.00 | 0.00 | 56 | 1013.0 |
| 20260904211515 | 95 | 203 | 3.0 | 9.0 | 0.00 | 0.00 | 0.00 | 57 | 1013.0 |
| 20260904210515 | 95 | 158 | 3.0 | 8.0 | 0.00 | 0.00 | 0.00 | 57 | 1013.0 |
| 20260904205516 | 95 | 248 | 4.0 | 8.0 | 0.00 | 0.00 | 0.00 | 58 | 1013.0 |
| 20260904204516 | 95 | 203 | 3.0 | 6.0 | 0.00 | 0.00 | 0.00 | 58 | 1013.1 |
| 20260904203515 | 95 | 203 | 3.0 | 5.0 | 0.00 | 0.00 | 0.00 | 59 | 1013.1 |
| 20260904202516 | 95 | 158 | 3.0 | 7.0 | 0.00 | 0.00 | 0.00 | 58 | 1013.2 |
| 20260904201515 | 94 | 225 | 2.0 | 6.0 | 0.00 | 0.00 | 0.00 | 59 | 1013.4 |
| 20260904200517 | 94 | 225 | 3.0 | 10.0 | 0.00 | 0.00 | 0.00 | 59 | 1013.4 |
| 20260904195517 | 94 | 203 | 3.0 | 8.0 | 0.00 | 0.00 | 0.00 | 62 | 1013.5 |
| 20260904194517 | 94 | 225 | 3.0 | 7.0 | 0.00 | 0.00 | 0.00 | 61 | 1013.5 |
| 20260904193517 | 93 | 135 | 3.0 | 7.0 | 0.00 | 0.00 | 0.00 | 62 | 1013.6 |
| 20260904192517 | 93 | 158 | 2.0 | 6.0 | 0.00 | 0.00 | 0.00 | 63 | 1013.6 |
| 20260904191517 | 93 | 158 | 3.0 | 7.0 | 0.00 | 0.00 | 0.00 | 63 | 1013.7 |
| 20260904190517 | 93 | 158 | 3.0 | 8.0 | 0.00 | 0.00 | 0.00 | 64 | 1013.8 |
| 20260904185517 | 93 | 203 | 3.0 | 8.0 | 0.00 | 0.00 | 0.00 | 64 | 1013.9 |
| 20260904184517 | 93 | 203 | 3.0 | 5.0 | 0.00 | 0.00 | 0.00 | 64 | 1013.9 |
| 20260904183517 | 93 | 158 | 3.0 | 8.0 | 0.00 | 0.00 | 0.00 | 62 | 1014.0 |
| 20260904182517 | 92 | 203 | 2.0 | 6.0 | 0.00 | 0.00 | 0.00 | 65 | 1014.0 |
| 20260904181517 | 92 | 158 | 3.0 | 7.0 | 0.00 | 0.00 | 0.00 | 65 | 1014.1 |
| 20260904180517 | 92 | 270 | 3.0 | 6.0 | 0.00 | 0.00 | 0.00 | 64 | 1014.2 |
| 20260904175517 | 91 | 203 | 3.0 | 7.0 | 0.00 | 0.00 | 0.00 | 65 | 1014.1 |
| 20260904174517 | 91 | 158 | 2.0 | 5.0 | 0.00 | 0.00 | 0.00 | 66 | 1014.2 |
| 20260904173515 | 91 | 270 | 3.0 | 5.0 | 0.00 | 0.00 | 0.00 | 66 | 1014.1 |
| 20260904172517 | 90 | 270 | 2.0 | 5.0 | 0.00 | 0.00 | 0.00 | 66 | 1014.1 |
| 20260904171517 | 90 | 158 | 1.0 | 3.0 | 0.00 | 0.00 | 0.00 | 67 | 1014.1 |
| 20260904170517 | 89 | 158 | 2.0 | 5.0 | 0.00 | 0.00 | 0.00 | 68 | 1014.1 |
| 20260904165537 | 89 | 158 | 3.0 | 6.0 | 0.00 | 0.00 | 0.00 | 69 | 1013.9 |
| 20260904164517 | 88 | 203 | 2.0 | 6.0 | 0.00 | 0.00 | 0.00 | 68 | 1014.0 |
| 20260904163517 | 88 | 225 | 3.0 | 5.0 | 0.00 | 0.00 | 0.00 | 71 | 1014.1 |
| 20260904162517 | 87 | 158 | 2.0 | 7.0 | 0.00 | 0.01 | 0.00 | 71 | 1014.0 |
| 20260904161537 | 87 | 270 | 3.0 | 6.0 | 0.00 | 0.01 | 0.00 | 70 | 1014.0 |
| 20260904160537 | 86 | 225 | 3.0 | 5.0 | 0.00 | 0.01 | 0.00 | 73 | 1014.1 |
| 20260904155537 | 86 | 248 | 3.0 | 6.0 | 0.00 | 0.01 | 0.00 | 74 | 1014.0 |
| 20260904154517 | 85 | 203 | 2.0 | 6.0 | 0.00 | 0.01 | 0.00 | 74 | 1014.1 |
| 20260904153517 | 84 | 225 | 2.0 | 5.0 | 0.00 | 0.01 | 0.00 | 76 | 1014.0 |
| 20260904152517 | 84 | 158 | 2.0 | 5.0 | 0.00 | 0.01 | 0.00 | 76 | 1014.0 |
| 20260904151517 | 83 | 158 | 3.0 | 7.0 | 0.00 | 0.01 | 0.00 | 76 | 1013.9 |
| 20260904150517 | 83 | 158 | 2.0 | 4.0 | 0.00 | 0.01 | 0.00 | 76 | 1014.0 |
| 20260904145517 | 83 | 203 | 3.0 | 7.0 | 0.00 | 0.01 | 0.00 | 77 | 1014.0 |
| 20260904144517 | 82 | 158 | 3.0 | 8.0 | 0.00 | 0.01 | 0.00 | 77 | 1014.0 |
| 20260904143517 | 82 | 158 | 3.0 | 6.0 | 0.00 | 0.01 | 0.00 | 77 | 1014.1 |
| 20260904142517 | 82 | 158 | 2.0 | 5.0 | 0.00 | 0.01 | 0.00 | 79 | 1014.0 |
| 20260904141517 | 81 | 158 | 2.0 | 5.0 | 0.00 | 0.01 | 0.00 | 79 | 1014.0 |
| 20260904140517 | 81 | 158 | 2.0 | 5.0 | 0.00 | 0.01 | 0.00 | 79 | 1014.0 |
| 20260904135517 | 81 | 158 | 3.0 | 6.0 | 0.00 | 0.01 | 0.00 | 79 | 1013.8 |
| 20260904134517 | 80 | 158 | 2.0 | 5.0 | 0.00 | 0.01 | 0.00 | 80 | 1013.7 |
| 20260904133517 | 80 | 158 | 2.0 | 4.0 | 0.00 | 0.01 | 0.00 | 80 | 1013.7 |
| 20260904132516 | 79 | 158 | 2.0 | 4.0 | 0.00 | 0.01 | 0.00 | 82 | 1013.8 |
| 20260904131517 | 78 | 158 | 3.0 | 6.0 | 0.00 | 0.01 | 0.00 | 83 | 1013.6 |
| 20260904130517 | 77 | 158 | 1.0 | 3.0 | 0.00 | 0.01 | 0.00 | 85 | 1013.6 |
| 20260904125517 | 76 | 158 | 1.0 | 3.0 | 0.00 | 0.01 | 0.00 | 86 | 1013.4 |
| 20260904124516 | 76 | 158 | 1.0 | 3.0 | 0.00 | 0.01 | 0.00 | 86 | 1013.3 |
| 20260904123516 | 76 | 158 | 1.0 | 2.0 | 0.00 | 0.01 | 0.00 | 86 | 1013.4 |
| 20260904122517 | 76 | 0.0 | 1.0 | 0.00 | 0.01 | 0.00 | 86 | 1013.2 | |
| 20260904121516 | 76 | 0.0 | 0.0 | 0.00 | 0.01 | 0.00 | 85 | 1013.2 | |
| 20260904120516 | 76 | 0.0 | 0.0 | 0.00 | 0.01 | 0.00 | 84 | 1013.2 | |
| 20260904115517 | 77 | 0.0 | 0.0 | 0.00 | 0.01 | 0.00 | 83 | 1013.1 | |
| 20260904114556 | 77 | 0.0 | 0.0 | 0.00 | 0.01 | 0.00 | 82 | 1013.0 | |
| 20260904113516 | 78 | 0.0 | 2.0 | 0.00 | 0.01 | 0.00 | 82 | 1013.0 | |
| 20260904112516 | 78 | 158 | 1.0 | 3.0 | 0.00 | 0.01 | 0.00 | 82 | 1013.0 |
| 20260904111537 | 77 | 0.0 | 2.0 | 0.00 | 0.01 | 0.00 | 82 | 1012.9 | |
| 20260904110536 | 77 | 0.0 | 1.0 | 0.00 | 0.01 | 0.00 | 82 | 1012.8 | |
| 20260904105517 | 78 | 0.0 | 0.0 | 0.00 | 0.01 | 0.00 | 81 | 1012.9 | |
| 20260904104536 | 78 | 0.0 | 0.0 | 0.00 | 0.01 | 0.00 | 80 | 1012.8 | |
| 20260904103516 | 79 | 0.0 | 0.0 | 0.00 | 0.01 | 0.00 | 79 | 1012.9 | |
| 20260904102556 | 79 | 158 | 1.0 | 2.0 | 0.00 | 0.01 | 0.00 | 79 | 1012.9 |
| 20260904101516 | 79 | 158 | 1.0 | 3.0 | 0.00 | 0.01 | 0.00 | 78 | 1012.9 |
| 20260904100516 | 79 | 158 | 1.0 | 2.0 | 0.00 | 0.01 | 0.00 | 78 | 1012.8 |
| 20260904095516 | 79 | 158 | 1.0 | 4.0 | 0.00 | 0.01 | 0.00 | 78 | 1012.8 |
| 20260904094537 | 80 | 180 | 1.0 | 4.0 | 0.00 | 0.01 | 0.00 | 77 | 1012.6 |
| 20260904093516 | 80 | 158 | 2.0 | 5.0 | 0.00 | 0.01 | 0.00 | 76 | 1012.6 |
| 20260904092516 | 80 | 158 | 2.0 | 7.0 | 0.00 | 0.01 | 0.00 | 76 | 1012.5 |
| 20260904091516 | 80 | 180 | 2.0 | 5.0 | 0.00 | 0.01 | 0.00 | 76 | 1012.4 |
| 20260904090536 | 80 | 180 | 2.0 | 5.0 | 0.00 | 0.01 | 0.00 | 76 | 1012.5 |
| 20260904085516 | 80 | 203 | 2.0 | 6.0 | 0.00 | 0.01 | 0.00 | 77 | 1012.4 |
| 20260904084516 | 79 | 180 | 2.0 | 7.0 | 0.00 | 0.01 | 0.00 | 77 | 1012.4 |
| 20260904083516 | 79 | 180 | 2.0 | 5.0 | 0.00 | 0.01 | 0.00 | 76 | 1012.3 |
| 20260904082516 | 80 | 180 | 2.0 | 7.0 | 0.00 | 0.01 | 0.00 | 76 | 1012.3 |
| 20260904081516 | 80 | 158 | 2.0 | 7.0 | 0.00 | 0.01 | 0.00 | 75 | 1012.3 |
| 20260904080516 | 80 | 158 | 2.0 | 4.0 | 0.00 | 0.01 | 0.00 | 75 | 1012.4 |
| 20260904075516 | 80 | 158 | 2.0 | 4.0 | 0.00 | 0.01 | 0.00 | 74 | 1012.4 |
| 20260904074516 | 80 | 180 | 3.0 | 7.0 | 0.00 | 0.01 | 0.00 | 74 | 1012.4 |
| 20260904073516 | 81 | 158 | 3.0 | 7.0 | 0.00 | 0.01 | 0.00 | 73 | 1012.4 |
| 20260904072516 | 81 | 180 | 3.0 | 7.0 | 0.00 | 0.01 | 0.00 | 73 | 1012.4 |
| 20260904071516 | 81 | 158 | 3.0 | 7.0 | 0.00 | 0.01 | 0.00 | 72 | 1012.4 |
| 20260904070517 | 82 | 158 | 3.0 | 7.0 | 0.00 | 0.01 | 0.00 | 71 | 1012.3 |
| 20260904065536 | 82 | 203 | 3.0 | 8.0 | 0.00 | 0.01 | 0.00 | 70 | 1012.3 |
| 20260904064516 | 82 | 203 | 3.0 | 5.0 | 0.00 | 0.01 | 0.00 | 70 | 1012.4 |
| 20260904063516 | 82 | 180 | 2.0 | 6.0 | 0.00 | 0.01 | 0.00 | 70 | 1012.2 |
| 20260904062516 | 82 | 203 | 2.0 | 4.0 | 0.00 | 0.01 | 0.00 | 70 | 1012.3 |
| 20260904061516 | 83 | 203 | 2.0 | 4.0 | 0.00 | 0.01 | 0.00 | 69 | 1012.3 |
| 20260904060516 | 83 | 203 | 2.0 | 11.0 | 0.00 | 0.01 | 0.00 | 68 | 1012.0 |
| 20260904055536 | 84 | 180 | 2.0 | 8.0 | 0.00 | 0.01 | 0.00 | 68 | 1011.8 |
| 20260904054516 | 84 | 158 | 4.0 | 10.0 | 0.00 | 0.01 | 0.00 | 67 | 1011.9 |
| 20260904053516 | 84 | 158 | 3.0 | 9.0 | 0.00 | 0.01 | 0.00 | 67 | 1011.7 |
| 20260904052536 | 84 | 158 | 4.0 | 8.0 | 0.00 | 0.01 | 0.00 | 67 | 1011.6 |
| 20260904051516 | 83 | 158 | 3.0 | 8.0 | 0.00 | 0.01 | 0.00 | 69 | 1011.4 |
| 20260904050516 | 82 | 158 | 2.0 | 5.0 | 0.00 | 0.01 | 0.00 | 72 | 1011.5 |
| 20260904045516 | 81 | 158 | 1.0 | 3.0 | 0.00 | 0.01 | 0.01 | 75 | 1011.4 |
| 20260904044516 | 81 | 135 | 1.0 | 2.0 | 0.00 | 0.01 | 0.01 | 76 | 1011.4 |
| 20260904043536 | 81 | 0.0 | 2.0 | 0.00 | 0.01 | 0.01 | 75 | 1011.4 | |
| 20260904042516 | 81 | 0.0 | 1.0 | 0.00 | 0.01 | 0.01 | 75 | 1011.3 | |
| 20260904041516 | 81 | 158 | 1.0 | 2.0 | 0.00 | 0.01 | 0.01 | 75 | 1011.4 |
| 20260904040516 | 82 | 0.0 | 2.0 | 0.00 | 0.01 | 0.01 | 75 | 1011.4 | |
| 20260904035516 | 82 | 158 | 1.0 | 2.0 | 0.00 | 0.01 | 0.01 | 74 | 1011.5 |
| 20260904034517 | 82 | 0.0 | 2.0 | 0.00 | 0.01 | 0.01 | 74 | 1011.5 | |
| 20260904033516 | 83 | 135 | 1.0 | 2.0 | 0.00 | 0.01 | 0.01 | 73 | 1011.4 |
| 20260904032516 | 83 | 158 | 1.0 | 2.0 | 0.00 | 0.01 | 0.01 | 73 | 1011.4 |
| 20260904031516 | 83 | 158 | 1.0 | 2.0 | 0.00 | 0.01 | 0.01 | 73 | 1011.4 |
| 20260904030516 | 83 | 135 | 1.0 | 2.0 | 0.00 | 0.01 | 0.01 | 72 | 1011.3 |
| 20260904025516 | 83 | 135 | 1.0 | 3.0 | 0.00 | 0.01 | 0.01 | 72 | 1011.2 |
| 20260904024516 | 84 | 113 | 1.0 | 2.0 | 0.00 | 0.01 | 0.01 | 72 | 1011.3 |
| 20260904023516 | 84 | 158 | 1.0 | 2.0 | 0.00 | 0.01 | 0.01 | 71 | 1011.3 |